When you browse on this site, cookies collect data to enhance your experience and personalize the content and advertising you see.
Visit our Privacy Policy to learn more. By continuing to use the site, you agree to this use of cookies and data.
  • In Latvia
  • List of Countries
  • For 7 days
  • Water Temperature
  • Satellite Maps
  • Weather Map
  • Weather Widgets
  • user-avatar
    Login

    Hourly Weather Tarin Kowt

    Today, 16 June, Sunday

    Time Temperature Precipitation Wind Pressure Humidity
    00:00 +23°C° 0 mm 2 mps 615 mmHg 19%
    01:00 +21°C° 0 mm 2 mps 614 mmHg 21%
    02:00 +21°C° 0 mm 3 mps 614 mmHg 22%
    03:00 +20°C° 0 mm 3 mps 614 mmHg 23%
    04:00 +19°C° 0 mm 3 mps 614 mmHg 26%
    05:00 +21°C° 0 mm 3 mps 615 mmHg 23%
    06:00 +22°C° 0 mm 3 mps 615 mmHg 21%
    07:00 +23°C° 0 mm 4 mps 616 mmHg 19%
    08:00 +26°C° 0 mm 4 mps 616 mmHg 17%
    09:00 +27°C° 0 mm 3 mps 617 mmHg 15%
    10:00 +29°C° 0 mm 3 mps 618 mmHg 12%
    11:00 +30°C° 0 mm 3 mps 617 mmHg 11%
    12:00 +31°C° 0 mm 3 mps 617 mmHg 9%
    13:00 +32°C° 0 mm 2 mps 617 mmHg 8%
    14:00 +34°C° 0 mm 2 mps 617 mmHg 7%
    15:00 +34°C° 0 mm 2 mps 616 mmHg 6%
    16:00 +34°C° 0 mm 2 mps 616 mmHg 5%
    17:00 +31°C° 0 mm 2 mps 615 mmHg 6%
    18:00 +29°C° 0 mm 1 mps 615 mmHg 7%
    19:00 +28°C° 0 mm 1 mps 614 mmHg 8%
    20:00 +27°C° 0 mm 1 mps 614 mmHg 8%
    21:00 +26°C° 0 mm 2 mps 614 mmHg 8%
    22:00 +26°C° 0 mm 2 mps 615 mmHg 8%
    23:00 +25°C° 0 mm 2 mps 614 mmHg 9%

    Tomorrow, 17 June, Monday

    Time Temperature Precipitation Wind Pressure Humidity
    00:00 +24°C° 0 mm 2 mps 614 mmHg 11%
    01:00 +23°C° 0 mm 2 mps 613 mmHg 12%
    02:00 +21°C° 0 mm 2 mps 613 mmHg 15%
    03:00 +21°C° 0 mm 2 mps 613 mmHg 17%
    04:00 +20°C° 0 mm 2 mps 613 mmHg 19%
    05:00 +23°C° 0 mm 2 mps 614 mmHg 18%
    06:00 +24°C° 0 mm 3 mps 614 mmHg 17%
    07:00 +26°C° 0 mm 3 mps 615 mmHg 16%
    08:00 +27°C° 0 mm 3 mps 615 mmHg 15%
    09:00 +29°C° 0 mm 3 mps 616 mmHg 13%
    10:00 +30°C° 0 mm 3 mps 616 mmHg 12%
    11:00 +31°C° 0 mm 3 mps 616 mmHg 10%
    12:00 +33°C° 0 mm 3 mps 616 mmHg 8%
    13:00 +34°C° 0 mm 3 mps 616 mmHg 7%
    14:00 +34°C° 0 mm 3 mps 615 mmHg 6%
    15:00 +34°C° 0 mm 3 mps 615 mmHg 5%
    16:00 +34°C° 0 mm 3 mps 615 mmHg 5%
    17:00 +33°C° 0 mm 4 mps 614 mmHg 6%
    18:00 +32°C° 0 mm 4 mps 614 mmHg 6%
    19:00 +29°C° 0 mm 4 mps 614 mmHg 7%
    20:00 +28°C° 0 mm 3 mps 613 mmHg 8%
    21:00 +26°C° 0 mm 2 mps 613 mmHg 10%
    22:00 +25°C° 0 mm 2 mps 613 mmHg 11%
    23:00 +24°C° 0 mm 2 mps 613 mmHg 12%

    Day after tomorrow, 18 June, Tuesday

    Time Temperature Precipitation Wind Pressure Humidity
    00:00 +23°C° 0 mm 2 mps 612 mmHg 12%
    01:00 +23°C° 0 mm 2 mps 612 mmHg 13%
    02:00 +21°C° 0 mm 2 mps 612 mmHg 14%
    03:00 +20°C° 0 mm 2 mps 612 mmHg 15%
    04:00 +20°C° 0 mm 2 mps 612 mmHg 16%
    05:00 +21°C° 0 mm 2 mps 612 mmHg 15%
    06:00 +24°C° 0 mm 3 mps 613 mmHg 14%
    07:00 +25°C° 0 mm 3 mps 614 mmHg 13%
    08:00 +27°C° 0 mm 3 mps 614 mmHg 12%
    09:00 +28°C° 0 mm 3 mps 614 mmHg 11%
    10:00 +30°C° 0 mm 4 mps 615 mmHg 11%
    11:00 +31°C° 0 mm 3 mps 615 mmHg 10%
    12:00 +33°C° 0 mm 3 mps 615 mmHg 8%
    13:00 +34°C° 0 mm 3 mps 615 mmHg 7%
    14:00 +34°C° 0 mm 3 mps 614 mmHg 6%
    15:00 +34°C° 0 mm 3 mps 614 mmHg 5%
    16:00 +34°C° 0 mm 4 mps 613 mmHg 5%
    17:00 +33°C° 0 mm 3 mps 613 mmHg 6%
    18:00 +30°C° 0 mm 2 mps 612 mmHg 7%
    19:00 +28°C° 0 mm 1 mps 612 mmHg 8%
    20:00 +27°C° 0 mm 2 mps 612 mmHg 9%
    21:00 +26°C° 0 mm 2 mps 612 mmHg 10%
    22:00 +25°C° 0 mm 2 mps 613 mmHg 12%
    23:00 +24°C° 0 mm 2 mps 612 mmHg 13%

    19 June, Wednesday

    Time Temperature Precipitation Wind Pressure Humidity
    00:00 +24°C° 0 mm 2 mps 612 mmHg 14%
    01:00 +23°C° 0 mm 2 mps 611 mmHg 15%
    02:00 +21°C° 0 mm 2 mps 611 mmHg 16%
    03:00 +20°C° 0 mm 2 mps 611 mmHg 17%
    04:00 +20°C° 0 mm 2 mps 611 mmHg 18%
    05:00 +21°C° 0 mm 2 mps 612 mmHg 16%
    06:00 +24°C° 0 mm 3 mps 613 mmHg 15%
    07:00 +26°C° 0 mm 3 mps 613 mmHg 14%
    08:00 +27°C° 0 mm 2 mps 614 mmHg 13%
    09:00 +29°C° 0 mm 2 mps 614 mmHg 13%
    10:00 +30°C° 0 mm 2 mps 615 mmHg 12%
    11:00 +31°C° 0 mm 2 mps 615 mmHg 11%
    12:00 +32°C° 0 mm 2 mps 615 mmHg 10%
    13:00 +35°C° 0 mm 2 mps 615 mmHg 9%
    14:00 +35°C° 0 mm 3 mps 614 mmHg 8%
    15:00 +35°C° 0 mm 3 mps 614 mmHg 7%
    16:00 +35°C° 0 mm 4 mps 614 mmHg 6%
    17:00 +34°C° 0 mm 3 mps 613 mmHg 7%
    18:00 +31°C° 0 mm 2 mps 613 mmHg 8%
    19:00 +29°C° 0 mm 2 mps 612 mmHg 9%
    20:00 +28°C° 0 mm 2 mps 613 mmHg 9%
    21:00 +27°C° 0 mm 2 mps 613 mmHg 9%
    22:00 +26°C° 0 mm 2 mps 613 mmHg 9%
    23:00 +25°C° 0 mm 1 mps 612 mmHg 11%

    20 June, Thursday

    Time Temperature Precipitation Wind Pressure Humidity
    00:00 +24°C° 0 mm 1 mps 612 mmHg 12%
    01:00 +23°C° 0 mm 1 mps 611 mmHg 14%
    02:00 +23°C° 0 mm 1 mps 611 mmHg 15%
    03:00 +22°C° 0 mm 1 mps 611 mmHg 17%
    04:00 +21°C° 0 mm 1 mps 611 mmHg 19%
    05:00 +23°C° 0 mm 2 mps 612 mmHg 17%
    06:00 +25°C° 0 mm 2 mps 613 mmHg 16%
    07:00 +27°C° 0 mm 3 mps 614 mmHg 14%
    08:00 +28°C° 0 mm 3 mps 615 mmHg 13%
    09:00 +30°C° 0 mm 3 mps 615 mmHg 11%
    10:00 +31°C° 0 mm 3 mps 616 mmHg 10%
    11:00 +33°C° 0 mm 3 mps 615 mmHg 9%
    12:00 +34°C° 0 mm 2 mps 615 mmHg 7%
    13:00 +35°C° 0 mm 2 mps 615 mmHg 6%
    14:00 +35°C° 0 mm 3 mps 615 mmHg 6%
    15:00 +35°C° 0 mm 3 mps 614 mmHg 6%
    16:00 +36°C° 0 mm 4 mps 614 mmHg 5%
    17:00 +34°C° 0 mm 3 mps 613 mmHg 7%
    18:00 +31°C° 0 mm 2 mps 613 mmHg 8%
    19:00 +29°C° 0 mm 1 mps 613 mmHg 9%
    20:00 +28°C° 0 mm 1 mps 613 mmHg 9%
    21:00 +27°C° 0 mm 1 mps 613 mmHg 10%
    22:00 +26°C° 0 mm 1 mps 613 mmHg 11%
    23:00 +25°C° 0 mm 1 mps 613 mmHg 12%

    21 June, Friday

    Time Temperature Precipitation Wind Pressure Humidity
    00:00 +25°C° 0 mm 1 mps 612 mmHg 13%
    01:00 +24°C° 0 mm 1 mps 612 mmHg 14%
    02:00 +23°C° 0 mm 2 mps 612 mmHg 15%
    03:00 +23°C° 0 mm 2 mps 612 mmHg 17%
    04:00 +21°C° 0 mm 2 mps 612 mmHg 18%
    05:00 +24°C° 0 mm 2 mps 613 mmHg 17%
    06:00 +26°C° 0 mm 2 mps 614 mmHg 15%
    07:00 +28°C° 0 mm 3 mps 615 mmHg 14%
    08:00 +29°C° 0 mm 3 mps 615 mmHg 13%
    09:00 +31°C° 0 mm 2 mps 616 mmHg 12%
    10:00 +32°C° 0 mm 2 mps 616 mmHg 12%
    11:00 +34°C° 0 mm 3 mps 616 mmHg 10%
    12:00 +35°C° 0 mm 3 mps 616 mmHg 9%
    13:00 +36°C° 0 mm 3 mps 616 mmHg 8%
    14:00 +36°C° 0 mm 3 mps 615 mmHg 7%
    15:00 +36°C° 0 mm 3 mps 615 mmHg 7%
    16:00 +37°C° 0 mm 4 mps 615 mmHg 6%
    17:00 +35°C° 0 mm 3 mps 614 mmHg 7%
    18:00 +32°C° 0 mm 2 mps 614 mmHg 8%
    19:00 +30°C° 0 mm 2 mps 613 mmHg 9%
    20:00 +29°C° 0 mm 1 mps 613 mmHg 10%
    21:00 +27°C° 0 mm 1 mps 613 mmHg 11%
    22:00 +24°C° 0 mm 0 mps 613 mmHg 12%
    23:00 +24°C° 0 mm 0 mps 613 mmHg 12%
    Show more